{"data":{"norad_id":62094,"intl_designator":"2024-220G","name":"STARLINK-11381 [DTC]","alt_names":[],"object_type":"PAYLOAD","status":"ACTIVE","operator":null,"country":"US","launch_date":"2024-11-25","launch_site_code":"AFETR","launch_vehicle":null,"mission":null,"orbit_class":"UNKNOWN","rcs_meters":null,"size_class":null,"mass_kg":null,"dimensions":null,"purposes":["comms"],"wikipedia_slug":null,"has_3d_model":false,"image_url":null,"decayed_at":null,"tle_current":{"epoch":"2026-09-20T19:47:10.350240Z","epoch_age_seconds":153246,"freshness":"FRESH","line1":"1 62094U 24220G   26263.82442535  .00128615  00000+0  98741-3 0  9997","line2":"2 62094  42.9992 306.7914 0001809 285.3289  74.7378 15.70911197105646","mean_motion":15.70911197,"eccentricity":0.0001809,"inclination_deg":42.9992,"raan_deg":306.7914,"arg_perigee_deg":285.3289,"mean_anomaly_deg":74.7378,"bstar":0.00098741,"rev_number":10564,"period_min":91.666543770902,"perigee_km":355.07331677432,"apogee_km":357.50983303272,"semimajor_km":6734.4285749035,"source":"CELESTRAK","updated_at":"2026-09-22T09:00:49.497177Z"}}}